Location: Góry Miechowskie
(50.3599°N, 20.1803°E)
Time: 12:14:41
(UTC+00:00)

ADEOS II - Pass Details

Date: 15 June 2024
Orbit: 796 x 798 km, 98.7° (Epoch: 15 July)

Event Time Altitude Azimuth Distance (km) Brightness Sun altitude
Rises 00:37:50 0° 19° (NNE) 3,314 7.3 -11.8°
Reaches altitude 10° 00:40:16 10° 25° (NNE) 2,380 6.1 -11.6°
Maximum altitude 00:45:20 47° 99° (E) 1,046 2.9 -11.3°
Drops below altitude 10° 00:50:22 10° 173° (S) 2,363 4.1 -10.9°
Enters shadow 00:50:49 - 175° (S) 2,530 4.2 -10.8°
